Weather History for KPTK - May, 2013

Change the Weather History Date:

Saturday, May 18, 2013

  Actual Average Record
Temperature  
Mean Temperature 66 °F -  
Max Temperature 79 °F 64 °F 87 °F (1998)
Min Temperature 54 °F 44 °F 34 °F (2002)
Cooling Degree Days 1    
Growing Degree Days 16 (Base 50)    
Moisture  
Dew Point 41 °F    
Average Humidity 44    
Maximum Humidity 64    
Minimum Humidity 25    
Precipitation  
Precipitation 0.00 in - - ()
Sea Level Pressure  
Sea Level Pressure 30.10 in    
Wind  
Wind Speed 7 mph (East)    
Max Wind Speed 14 mph    
Max Gust Speed 21 mph    
Visibility 10 miles    
Events      
Averages and records for this station are not official NWS values.
T = Trace of Precipitation, MM = Missing Value Source: NWS Daily Summary

Daily Weather History Graph

Daily Weather History Graph

Search for Another Location

Airport or City:

Trip Planner

Search our weather history database for the weather conditions in past years. The results will help you decide how hot, cold, wet, or windy it might be!

Date:

Astronomy

May. 18, 2013 Rise Set
Actual Time 6:08 AM EDT 8:52 PM EDT
Civil Twilight 5:35 AM EDT 9:25 PM EDT
Nautical Twilight 4:54 AM EDT 10:06 PM EDT
Astronomical Twilight 4:07 AM EDT 10:54 PM EDT
Moon 1:45 PM EDT (5/18) 2:09 AM EDT (5/18)
Length of Visible Light 15h 50m
Length of Day
14h 44m
First Quarter, 55% of the Moon is Illuminated
May 18
First Quarter
May 25
Full
May 31
Last Quarter
Jun 8
New
Jun 16
First Quarter

Hourly Weather History & Observations

Time (EDT) Temp. Dew Point Humidity Pressure Visibility Wind Dir Wind Speed Gust Speed Precip Events Conditions
12:53 AM 55.9 °F 39.0 °F 53% 30.15 in 10.0 mi East 5.8 mph - N/A   Overcast
1:53 AM 55.9 °F 39.9 °F 55% 30.13 in 10.0 mi ESE 4.6 mph - N/A   Overcast
2:53 AM 55.9 °F 39.9 °F 55% 30.13 in 10.0 mi Calm Calm - N/A   Clear
3:53 AM 55.0 °F 42.1 °F 62% 30.13 in 10.0 mi ENE 4.6 mph - N/A   Mostly Cloudy
4:53 AM 54.0 °F 42.1 °F 64% 30.13 in 10.0 mi NNE 3.5 mph - N/A   Mostly Cloudy
5:53 AM 55.0 °F 42.1 °F 62% 30.14 in 10.0 mi ENE 3.5 mph - N/A   Overcast
6:53 AM 55.9 °F 41.0 °F 57% 30.15 in 10.0 mi East 3.5 mph - N/A   Overcast
7:53 AM 57.0 °F 41.0 °F 55% 30.16 in 10.0 mi East 5.8 mph - N/A   Mostly Cloudy
8:53 AM 57.9 °F 41.0 °F 53% 30.16 in 10.0 mi East 9.2 mph - N/A   Mostly Cloudy
9:53 AM 61.0 °F 42.1 °F 50% 30.15 in 10.0 mi East 12.7 mph - N/A   Mostly Cloudy
10:53 AM 64.9 °F 43.0 °F 45% 30.14 in 10.0 mi East 6.9 mph - N/A   Scattered Clouds
11:53 AM 69.1 °F 43.0 °F 39% 30.14 in 10.0 mi ENE 6.9 mph - N/A   Mostly Cloudy
12:53 PM 73.0 °F 44.1 °F 35% 30.12 in 10.0 mi East 10.4 mph - N/A   Clear
1:53 PM 73.9 °F 43.0 °F 33% 30.10 in 10.0 mi ESE 12.7 mph - N/A   Scattered Clouds
2:53 PM 75.2 °F 42.8 °F 31% 30.09 in 10.0 mi East 12.7 mph 20.7 mph N/A   Scattered Clouds
3:53 PM 78.1 °F 41.0 °F 27% 30.06 in 10.0 mi ESE 13.8 mph 20.7 mph N/A   Scattered Clouds
4:53 PM 78.1 °F 39.9 °F 25% 30.05 in 10.0 mi ESE 11.5 mph - N/A   Scattered Clouds
5:53 PM 77.0 °F 39.9 °F 26% 30.05 in 10.0 mi ESE 10.4 mph - N/A   Scattered Clouds
6:53 PM 75.9 °F 39.9 °F 27% 30.04 in 10.0 mi ESE 10.4 mph - N/A   Scattered Clouds
7:53 PM 73.0 °F 39.0 °F 29% 30.06 in 10.0 mi ESE 11.5 mph - N/A   Scattered Clouds
8:53 PM 71.1 °F 42.1 °F 35% 30.05 in 10.0 mi ESE 9.2 mph - N/A   Clear
9:53 PM 66.9 °F 42.1 °F 40% 30.06 in 10.0 mi SE 8.1 mph - N/A   Clear
10:53 PM 64.9 °F 42.1 °F 43% 30.06 in 10.0 mi SE 6.9 mph - N/A   Clear
11:53 PM 63.0 °F 43.0 °F 48% 30.05 in 10.0 mi ESE 5.8 mph - N/A   Clear